Location: Unspecified
(0.0000°N, 0.0000°E)
Time: 23:03:45
(UTC+00:00)

Altair 2 - Pass Details

Date: 09 November 2024
Orbit: 1017 x 1126 km, 90.0° (Epoch: 06 December)

Event Time Altitude Azimuth Distance (km) Brightness Sun altitude
Exits shadow 03:41:33 11° 212° (SSW) 2,862 10.8 -29.1°
Drops below altitude 10° 03:41:51 10° 211° (SSW) 2,957 10.9 -29.0°
Sets 03:44:40 0° 202° (SSW) 3,901 11.6 -28.4°
